View from above orbital plane
|
View from above satellite
|
Ground track
|
The orbit data is extracted from the following two-line orbital elements,
1 17296U 87003B 21016.57725249 .00000077 00000-0 65190-5 0 9994
2 17296 82.5283 240.2041 0017993 220.6828 139.3044 14.83317288816122
Epoch (UTC): | 16 January 2021 13:51:14 |
Eccentricity: | 0.0017993 |
inclination: | 82.5283° |
perigee height: | 606 km |
apogee height: | 631 km |
right ascension of ascending node: | 240.2041° |
argument of perigee: | 220.6828° |
revolutions per day: | 14.83317288 |
mean anomaly at epoch: | 139.3044° |
orbit number at epoch: | 81612 |
The dashed part of the orbit path shows where the satellite is in the earth's shadow,
|
|